Weather in Zybino

Russia / Belgorod Oblast     50°41′30″N   36°02′15″E
temp.,
°C
wind,
m/s
gust,
m/s
humid.,
%
clouds,
%
prec.,
mm/h
press.,
hPa
HPBL,
m
16 april, fri
fri1600:00+7sse48905 0.4 1013332
03:00+7se3687100 0.4 1013292
06:00+7se498877 0.1 1014432
09:00+8sse688079 0.1 1015929
12:00+9sse578083 0.1 1016803
15:00+10s576795 0.5 10161110
18:00+10sse477594 0.2 1016739
21:00+7se498895 0.4 1016228
17 april, sat
sat1700:00+6sse499198 0.2 1017355
03:00+5e238999 1.5 101765
06:00+4se249268 0.0 101877
09:00+7ssw447416 0.0 1018612
12:00+9ssw5563100 0.0 10181370
15:00+7sw5575100 0.3 1019876
18:00+7sw468199 0.1 1019889
21:00+6sw4686100 0.1 1020558
18 april, sun
sun1800:00+5ssw3789100 0.1 1020483
03:00+5s2587100 0.1 1019168
06:00+5s3587100 0.1 1019212
09:00+7s4776100 0.1 1019569
12:00+8sse4673100 0.0 1019742
15:00+13ssw5851100 0.1 10182060
18:00+11se3666100 0.1 1017179
21:00+10se51168100 0.1 1018263
19 april, mon
mon1900:00+8ese5107182 0.0 1017198
03:00+7ese4978100 0.0 1017185
06:00+8ese3878100 0.0 1017212
09:00+10se5868100 0.0 1017456
12:00+10ese7978100 0.3 10171259
15:00+8ese6884100 0.6 1016789
18:00+8e61085100 0.0 1014835
21:00+8e5992100 0.0 1012561
20 april, tue
tue2000:00+8e51094100 0.2 1009418
03:00+9ene61298100 1.8 1004436
06:00+10e61498100 5.8 999471
09:00+12se61297100 12.6 996571
12:00+11s5997100 6.8 995465
15:00+16s813633 8.5 9951599
18:00+12ssw4674100 0.6 995519
21:00+9s4892100 5.6 999644